GW6838 Weather Reports


time (UTC)temp
C
wind
direction
speed
KPH
gust
KPH
rain 1hr
cm
rain 24hr
cm
rain mn
cm
humidity
%
barometer
mb
20260507021304 7 349 0.0 3.2 0.00 3.71 1.83 89 1011.9
20260507020302 7 281 1.6 4.8 0.00 3.76 1.83 89 1011.6
20260507015804 7 264 3.2 4.8 0.00 3.78 1.83 89 1011.9
20260507015306 7 213 0.0 3.2 0.00 3.81 1.83 89 1011.9
20260507014803 7 337 0.0 3.2 0.00 3.84 1.83 89 1011.9
20260507014303 7 268 0.0 3.2 0.00 3.89 1.83 88 1011.8
20260507013803 7 306 1.6 3.2 0.00 3.91 1.83 89 1011.8
20260507013303 7 293 3.2 3.2 0.00 3.94 1.83 89 1011.8
20260507012803 7 254 0.0 3.2 0.00 3.96 1.83 88 1011.5
20260507011804 7 112 3.2 4.8 0.00 4.04 1.83 88 1011.3
20260507010803 7 183 1.6 3.2 0.00 4.11 1.83 87 1011.6
20260507010303 7 289 1.6 3.2 0.00 4.11 1.83 87 1011.6
20260507005803 7 193 0.0 1.6 0.00 4.14 1.83 86 1011.4
20260507005305 7 5 0.0 3.2 0.00 4.14 1.83 86 1011.4
20260507004803 7 135 0.0 1.6 0.00 4.14 1.83 86 1011.5
20260507004303 7 242 1.6 3.2 0.00 4.17 1.83 86 1011.5
20260507002803 7 287 1.6 4.8 0.00 4.32 1.83 85 1011.2
20260507002306 7 226 0.0 4.8 0.00 4.45 1.83 85 1011.1
20260507001803 7 263 1.6 4.8 0.00 4.47 1.83 85 1011.2
20260507001303 7 251 1.6 8.0 0.00 4.47 1.83 85 1011.0
20260507000803 7 278 4.8 8.0 0.00 4.47 1.83 85 1011.2
20260507000306 7 261 3.2 9.7 0.00 4.47 1.83 85 1011.1
20260506235803 7 277 3.2 9.7 0.00 4.47 1.83 85 1011.0
20260506235306 7 270 4.8 8.0 0.00 4.47 1.83 85 1011.1
20260506234803 7 258 4.8 12.9 0.00 4.47 1.83 84 1010.8
20260506234303 7 253 6.4 12.9 0.00 4.47 1.83 84 1010.7
20260506233803 7 294 8.0 11.3 0.00 4.47 1.83 84 1010.8
20260506233303 7 248 0.0 12.9 0.00 4.47 1.83 84 1010.5
20260506232306 7 269 3.2 9.7 0.00 4.47 1.83 84 1010.5
20260506231804 7 291 4.8 9.7 0.00 4.47 1.83 84 1010.4
20260506231303 7 273 3.2 8.0 0.00 4.47 1.83 84 1010.3
20260506230803 8 266 1.6 4.8 0.00 4.47 1.83 84 1010.1
20260506230303 7 57 1.6 4.8 0.00 4.47 1.83 83 1010.0
20260506225305 7 332 0.0 4.8 0.00 4.47 1.83 83 1009.8
20260506224804 8 50 3.2 8.0 0.00 4.47 1.83 83 1009.9
20260506224304 8 303 1.6 8.0 0.00 4.47 1.83 84 1010.3
20260506223303 7 34 3.2 8.0 0.00 4.47 1.83 83 1010.3
20260506221803 8 301 3.2 9.7 0.00 4.47 1.83 84 1010.7
20260506221304 8 326 4.8 11.3 0.00 4.47 1.83 83 1010.4
20260506220804 8 343 3.2 12.9 0.00 4.47 1.83 83 1010.5
20260506220303 8 1 3.2 9.7 0.00 4.47 1.83 84 1010.3
20260506215803 8 264 3.2 16.1 0.00 4.47 1.83 84 1010.4
20260506214303 8 290 3.2 11.3 0.00 4.47 1.83 84 1010.2
20260506213804 8 310 3.2 14.5 0.00 4.47 1.83 85 1010.1
20260506213303 8 10 3.2 14.5 0.00 4.47 1.83 86 1010.2
20260506212803 8 281 6.4 14.5 0.00 4.47 1.83 86 1009.9
20260506211804 8 279 3.2 14.5 0.00 4.47 1.83 86 1010.0
20260506210804 7 264 8.0 14.5 0.00 4.50 1.83 88 1010.1
20260506205803 7 279 3.2 19.3 0.00 4.50 1.83 88 1010.0
20260506205306 7 294 4.8 19.3 0.00 4.50 1.83 89 1009.9
20260506204804 7 306 4.8 19.3 0.00 4.50 1.83 89 1009.8
20260506204304 7 300 8.0 19.3 0.00 4.50 1.83 89 1009.8
20260506203804 7 289 3.2 16.1 0.00 4.50 1.83 90 1009.7
20260506203303 7 15 3.2 20.9 0.00 4.50 1.83 91 1009.6
20260506202803 7 37 4.8 14.5 0.00 4.50 1.83 91 1009.4
20260506202306 7 265 4.8 11.3 0.03 4.50 1.83 92 1009.5
20260506201805 7 305 6.4 16.1 0.03 4.50 1.83 92 1009.4
20260506201303 7 320 4.8 16.1 0.03 4.50 1.83 92 1009.4
20260506200804 7 293 8.0 12.9 0.03 4.50 1.83 92 1009.3
20260506200303 7 282 3.2 12.9 0.03 4.50 1.83 92 1009.4
20260506195803 7 273 4.8 14.5 0.03 4.50 1.83 92 1009.4
20260506195305 7 291 9.7 14.5 0.03 4.50 1.83 92 1009.5
20260506194803 7 301 6.4 14.5 0.03 4.50 1.83 92 1009.5
20260506194304 7 277 6.4 14.5 0.00 4.50 1.83 92 1009.6
20260506193804 7 335 4.8 14.5 0.00 4.50 1.83 92 1009.7
20260506193303 7 274 9.7 14.5 0.00 4.50 1.83 92 1009.4
20260506192803 7 305 4.8 14.5 0.00 4.50 1.83 92 1009.5
20260506190803 7 111 1.6 11.3 0.00 4.50 1.80 91 1009.4
20260506190304 7 353 4.8 14.5 0.00 4.50 1.80 91 1009.1
20260506185804 7 290 4.8 11.3 0.00 4.50 1.80 91 1008.9
20260506185306 7 263 4.8 11.3 0.00 4.50 1.80 91 1009.1
20260506184803 7 349 6.4 12.9 0.00 4.50 1.80 92 1009.1
20260506184303 7 288 9.7 14.5 0.00 4.50 1.80 91 1009.1
20260506183303 7 328 4.8 14.5 0.00 4.50 1.80 92 1009.2
20260506182804 7 261 3.2 20.9 0.00 4.50 1.80 92 1009.0
20260506182306 7 24 8.0 20.9 0.00 4.50 1.80 92 1008.9
20260506181303 7 263 8.0 12.9 0.00 4.50 1.80 92 1008.8
20260506180803 7 324 8.0 14.5 0.00 4.50 1.80 92 1008.6
20260506180303 7 13 8.0 12.9 0.00 4.50 1.80 92 1008.5
20260506174805 7 313 4.8 16.1 0.00 4.55 1.80 92 1008.4
20260506174303 7 308 3.2 14.5 0.03 4.55 1.80 92 1008.4
20260506173803 7 353 8.0 20.9 0.03 4.55 1.80 92 1008.6
20260506172803 8 38 3.2 11.3 0.03 4.55 1.80 92 1008.6
20260506172306 8 52 4.8 16.1 0.03 4.55 1.80 92 1008.3
20260506171803 8 307 1.6 8.0 0.03 4.55 1.80 92 1008.3
20260506171304 7 342 3.2 11.3 0.03 4.55 1.80 92 1008.1
20260506170804 8 344 3.2 11.3 0.03 4.52 1.80 92 1008.2
20260506170303 8 9 8.0 11.3 0.03 4.52 1.80 92 1008.2
20260506165804 7 346 3.2 12.9 0.03 4.52 1.80 92 1008.2
20260506164804 7 341 1.6 8.0 0.05 4.52 1.80 92 1008.3
20260506164303 8 217 1.6 4.8 0.05 4.52 1.78 92 1008.4
20260506163804 8 311 0.0 8.0 0.05 4.52 1.78 92 1008.3
20260506163304 7 321 3.2 8.0 0.08 4.52 1.78 92 1008.3
20260506162306 7 323 4.8 12.9 0.10 4.52 1.78 92 1008.2
20260506161803 7 24 3.2 8.0 0.10 4.50 1.78 92 1008.4
20260506160804 7 306 3.2 8.0 0.10 4.50 1.78 92 1008.5
20260506160303 7 348 4.8 9.7 0.10 4.50 1.78 92 1008.7
20260506155803 7 27 3.2 11.3 0.10 4.50 1.78 92 1008.4
20260506155306 7 319 4.8 11.3 0.10 4.50 1.75 92 1008.4
20260506154803 7 288 1.6 8.0 0.08 4.47 1.75 92 1008.7
20260506154303 7 30 4.8 8.0 0.10 4.47 1.75 92 1008.8
20260506152803 7 345 3.2 11.3 0.05 4.39 1.68 92 1008.8
20260506151804 7 26 3.2 8.0 0.08 4.39 1.68 92 1008.6
20260506151304 7 257 1.6 4.8 0.10 4.39 1.68 92 1008.3
20260506150804 7 97 1.6 4.8 0.10 4.39 1.68 92 1008.4
20260506150304 7 3 3.2 8.0 0.10 4.39 1.68 92 1008.5
20260506145305 7 96 1.6 4.8 0.13 4.39 1.65 92 1008.1
20260506144804 7 113 1.6 4.8 0.15 4.39 1.65 92 1008.2
20260506143303 6 43 1.6 4.8 0.15 4.37 1.63 92 1008.0
20260506142804 6 27 1.6 9.7 0.18 4.34 1.63 92 1008.1
20260506142306 6 60 4.8 9.7 0.18 4.32 1.60 92 1007.9
20260506141804 6 91 3.2 8.0 0.18 4.32 1.60 92 1008.2
20260506140303 6 64 3.2 4.8 0.23 4.29 1.55 92 1008.4
20260506135804 6 348 1.6 8.0 0.25 4.27 1.55 92 1008.3
20260506134804 6 14 3.2 4.8 0.30 4.24 1.52 92 1008.5
20260506134304 6 38 3.2 4.8 0.33 4.24 1.50 92 1008.4
20260506133803 6 242 1.6 11.3 0.38 4.22 1.50 92 1008.4
20260506133303 6 24 4.8 9.7 0.38 4.19 1.47 92 1008.8
20260506132803 6 275 3.2 9.7 0.41 4.17 1.45 92 1008.7
20260506132307 6 43 4.8 9.7 0.41 4.17 1.42 92 1008.4
20260506131803 6 327 1.6 9.7 0.41 4.14 1.42 92 1008.5
20260506130803 6 303 3.2 4.8 0.36 4.06 1.35 92 1008.7
20260506130304 6 117 1.6 8.0 0.36 4.04 1.32 92 1008.7
20260506125306 6 18 3.2 8.0 0.30 3.99 1.24 92 1008.6
20260506124804 6 43 3.2 8.0 0.28 3.94 1.22 92 1008.5
20260506124305 6 251 1.6 4.8 0.25 3.89 1.17 92 1008.7
20260506123304 6 57 3.2 8.0 0.18 3.81 1.09 92 1008.6
20260506122803 6 12 1.6 8.0 0.13 3.76 1.04 92 1008.3
20260506122305 6 45 3.2 9.7 0.13 3.76 1.02 92 1008.4
20260506121804 6 89 1.6 9.7 0.10 3.73 0.99 92 1008.4
20260506121303 6 46 3.2 12.9 0.10 3.71 0.99 92 1008.3
20260506120803 6 43 6.4 11.3 0.13 3.71 0.99 92 1008.3
20260506120304 6 37 4.8 11.3 0.13 3.71 0.97 92 1008.3
20260506115805 6 63 4.8 11.3 0.15 3.68 0.97 92 1008.4
20260506115306 6 70 4.8 11.3 0.15 3.68 0.94 92 1008.4
20260506114804 6 33 4.8 12.9 0.18 3.66 0.94 92 1008.6
20260506114303 6 44 4.8 12.9 0.18 3.66 0.94 92 1008.7
20260506113804 6 22 4.8 11.3 0.20 3.66 0.91 92 1008.7
20260506113303 6 30 3.2 9.7 0.18 3.63 0.91 92 1008.6
20260506112803 6 63 4.8 11.3 0.20 3.63 0.91 92 1008.6
20260506112305 6 45 3.2 9.7 0.23 3.63 0.89 92 1008.9
20260506111803 6 73 4.8 12.9 0.23 3.61 0.89 92 1008.8
20260506111303 6 53 4.8 12.9 0.23 3.61 0.89 92 1008.8
20260506110803 6 37 4.8 11.3 0.23 3.58 0.86 92 1009.1
20260506110303 6 338 3.2 9.7 0.23 3.56 0.84 92 1009.1
20260506105305 6 2 4.8 8.0 0.20 3.51 0.79 92 1008.8
20260506104804 6 84 1.6 9.7 0.18 3.51 0.76 92 1008.8
20260506103803 6 60 3.2 8.0 0.18 3.45 0.74 92 1008.6
20260506103303 6 52 1.6 4.8 0.18 3.45 0.71 92 1008.8
20260506102803 6 65 4.8 4.8 0.15 3.43 0.71 92 1008.7
20260506102305 6 31 1.6 4.8 0.15 3.40 0.66 92 1008.7
20260506101805 6 32 1.6 8.0 0.15 3.38 0.66 92 1008.6
20260506101304 6 73 3.2 11.3 0.15 3.38 0.64 92 1008.5
20260506100803 6 61 8.0 11.3 0.18 3.35 0.61 92 1008.3
20260506100303 6 87 8.0 12.9 0.20 3.33 0.61 92 1008.4
20260506095803 6 73 6.4 14.5 0.23 3.33 0.61 92 1008.4
20260506094803 6 69 9.7 12.9 0.23 3.30 0.58 92 1008.4
20260506094303 6 67 3.2 12.9 0.23 3.28 0.56 92 1008.8
20260506093804 6 73 9.7 12.9 0.23 3.28 0.56 92 1008.6
20260506093303 6 66 4.8 11.3 0.23 3.28 0.56 92 1008.8
20260506092305 6 67 4.8 9.7 0.23 3.25 0.53 92 1009.1
20260506090803 6 21 4.8 11.3 0.20 3.17 0.46 92 1009.3
20260506090303 6 54 4.8 11.3 0.20 3.12 0.41 92 1009.4
20260506085305 6 358 1.6 11.3 0.18 3.07 0.36 92 1009.2
20260506084803 6 84 8.0 11.3 0.18 3.07 0.33 92 1009.0
20260506084304 6 58 3.2 12.9 0.15 3.05 0.33 92 1009.2
20260506083803 6 61 3.2 12.9 0.15 3.05 0.33 92 1009.0
20260506083304 6 38 4.8 12.9 0.15 3.05 0.33 92 1009.1
20260506082804 6 49 4.8 16.1 0.15 3.05 0.33 92 1008.9
20260506082305 6 66 11.3 16.1 0.13 3.02 0.30 92 1008.9
20260506081803 7 275 4.8 20.9 0.10 3.00 0.28 92 1009.6
20260506081307 7 86 16.1 20.9 0.08 3.00 0.25 92 1008.9
20260506080804 7 316 4.8 20.9 0.08 3.00 0.23 92 1009.4
20260506080303 7 64 4.8 19.3 0.03 2.95 0.20 92 1009.3
20260506073303 7 17 4.8 20.9 0.00 2.95 0.18 92 1008.7
20260506072803 7 43 8.0 16.1 0.00 2.95 0.18 92 1008.9
20260506072305 7 36 9.7 19.3 0.00 2.95 0.18 92 1008.9
20260506071803 7 49 12.9 19.3 0.03 2.95 0.18 92 1008.9
20260506071303 7 77 11.3 16.1 0.03 2.95 0.18 92 1008.8
20260506062306 8 75 8.0 11.3 0.05 2.92 0.15 92 1009.1
20260506061304 8 53 9.7 12.9 0.05 2.92 0.15 92 1009.4
20260506060804 8 85 9.7 12.9 0.05 2.90 0.15 92 1009.4
20260506060303 8 81 8.0 12.9 0.00 2.87 0.10 92 1009.4
20260506051305 8 31 1.6 3.2 0.03 2.87 0.10 92 1010.5
20260506050303 8 96 3.2 4.8 0.08 2.87 0.10 92 1010.3
20260506044304 8 57 3.2 4.8 1.60 2.87 0.10 92 1010.3
20260506043803 8 19 1.6 4.8 1.63 2.87 0.10 92 1010.5
20260506043304 8 134 1.6 4.8 1.68 2.84 0.10 92 1010.6
20260506041805 8 83 3.2 4.8 1.73 2.84 0.08 92 1010.2
20260506041303 8 63 3.2 4.8 1.75 2.84 0.08 92 1010.4
20260506040805 8 26 3.2 8.0 1.75 2.82 0.05 92 1010.4
20260506035306 8 87 4.8 8.0 0.36 1.37 1.37 92 1010.3
20260506034803 8 113 3.2 4.8 0.33 1.35 1.35 92 1010.7
20260506034303 8 150 3.2 4.8 0.28 1.30 1.30 92 1010.9
20260506033803 8 136 3.2 4.8 0.23 1.24 1.24 92 1010.6
20260506033303 8 75 1.6 3.2 0.23 1.22 1.22 92 1010.5
20260506032305 8 76 3.2 9.7 0.20 1.14 1.14 92 1010.4
20260506031804 8 48 6.4 8.0 0.20 1.12 1.12 92 1010.3
20260506030803 8 40 4.8 8.0 0.23 1.07 1.07 92 1010.4
20260506030304 8 52 3.2 4.8 0.20 1.04 1.04 92 1010.6
20260506025805 8 44 3.2 4.8 0.20 1.02 1.02 92 1011.0
20260506025305 8 22 3.2 8.0 0.23 1.02 1.02 92 1010.9
20260506024804 8 31 4.8 8.0 0.25 1.02 1.02 92 1010.8
20260506024304 8 40 4.8 8.0 0.30 1.02 1.02 92 1011.0
20260506023803 8 327 3.2 8.0 0.30 0.99 0.99 92 1011.1
20260506022804 8 72 0.0 4.8 0.33 0.99 0.99 92 1011.0
20260506022306 8 28 1.6 8.0 0.36 0.94 0.94 92 1011.0
20260506021803 8 224 1.6 8.0 0.38 0.94 0.94 92 1011.1